Location: Orange
(33.2833°S, 149.1000°E)
Time: 21:42:52
(UTC+11:00)

Envisat - Pass Details

Date: 08 December 2021
Orbit: 764 x 766 km, 98.2° (Epoch: 18 January)

Event Time Altitude Azimuth Distance (km) Brightness Sun altitude
Rises 04:24:41 0° 43° (NE) 3,221 6.3 -15.0°
Reaches altitude 10° 04:27:17 10° 55° (NE) 2,303 5.7 -14.6°
Maximum altitude 04:31:28 26° 111° (ESE) 1,470 5.3 -14.0°
Drops below altitude 10° 04:35:41 10° 166° (SSE) 2,326 6.3 -13.3°
Sets 04:38:19 0° 178° (S) 3,261 6.9 -12.8°
